www.pogodaiklimat.ru
Время
и дата
20:51 27.01
21:51 27.01
22:51 27.01
23:51 27.01
00:51 28.01
01:51 28.01
02:51 28.01
03:51 28.01
04:51 28.01
05:51 28.01
06:51 28.01
07:51 28.01
08:51 28.01
09:51 28.01
10:51 28.01
11:51 28.01
12:51 28.01
13:51 28.01
14:51 28.01
15:51 28.01
16:51 28.01
17:51 28.01
18:51 28.01
19:51 28.01
20:51 28.01
21:51 28.01
22:51 28.01
23:51 28.01
00:51 29.01
01:51 29.01
02:51 29.01
03:51 29.01
04:51 29.01
05:51 29.01
06:51 29.01
07:51 29.01
08:51 29.01
09:51 29.01
10:51 29.01
11:51 29.01
12:51 29.01
13:51 29.01
14:51 29.01
15:51 29.01
16:51 29.01
17:51 29.01
18:51 29.01
19:51 29.01
Ветер
(напр.,м/с)
Видим. Явления Облачность Т
(С)
Тd
(С)
f
(%)
Тe
(С)
Тes
(С)
Комфортность P
(гПа)
Po
(гПа)
Тmin
(С)
Tmax
(С)
R
(мм)
R24
(мм)
S
(см)
Ю 2 16 км ясно -2.2 -8.3 63 -6 -6 1022.0 1007.2
Ю 2 16 км ясно -1.1 -8.3 58 -4 -4 1021.6 1006.9
штиль 0 16 км ясно -2.2 -8.3 63 -3 -3 1021.2 1006.5
штиль 0 16 км ясно -5.0 -8.9 74 -6 -6 1021.2 1006.2
штиль 0 16 км 5/2 1950 m
[Ac]
-4.4 -8.3 74 -5 -5 1020.9 1006.2 -5.0
штиль 0 16 км 10/8 1950 m
[Ac]
-1.7 -6.7 69 -3 -3 1020.9 1005.9
ЮЗ 3 16 км 10/10 1800 м +0.6 -6.7 58 -3 -3 1020.7 1005.9
штиль 0 16 км ясно -1.7 -7.8 63 -2 -2 1020.9 1006.2
штиль 0 16 км 10/0 2550 m
[Ac]
-1.7 -6.1 72 -3 -3 1021.1 1006.2
штиль 0 16 км 10/0 2400 m
[Ac]
-2.2 -5.6 77 -3 -3 1021.5 1006.5
штиль 0 16 км 10/0 2100 m
[Ac]
-1.7 -5.6 75 -3 -3 1021.7 1006.9 -4.4 +1.1
СЗ 2 16 км 8/8 1800 м -2.2 -5.0 81 -6 -6 1022.8 1007.9
штиль 0 16 км ясно +1.1 -5.0 64 0 +1 1023.8 1008.9
ЮЗ 5 16 км слабый дождь ясно +5.0 -5.0 48 +1 +2 1024.3 1009.6
З 7 16 км ясно +7.2 -4.4 43 +3 +4 1024.4 1009.6
ЮЗ 6
{11}
16 км ясно +8.9 -3.3 42 +6 +8 1024.4 1009.6
ЮЗ 7
{10}
16 км ясно +8.9 -3.3 42 +5 +7 1023.6 1008.9 -2.2 +10.0
З 6
{9}
16 км ясно +10.0 -2.8 41 +7 +9 1023.5 1008.9
ЮЗ 7
{9}
16 км ясно +10.0 -3.3 39 +7 +8 1023.6 1008.9
ЮЗ 6
{8}
16 км ясно +10.0 -3.3 39 +7 +8 1024.0 1009.2
ЮЗ 4 16 км ясно +8.9 -2.8 44 +6 +7 1024.6 1009.9
Ю 3 16 км ясно +8.3 -3.3 44 +6 +6 1025.1 1010.2
ЮЗ 2 16 км ясно +4.4 -3.3 57 +2 +2 1025.8 1010.9 +4.4 +10.0
ЮЗ 2 16 км ясно +1.7 -3.3 69 -1 -1 1026.2 1011.2
СЗ 2 16 км ясно +1.7 -3.3 69 -1 -1 1026.5 1011.6
СЗ 2 16 км ясно +1.1 -2.8 75 -2 -2 1026.8 1011.9
штиль 0 16 км ясно +0.6 -3.3 75 0 0 1026.5 1011.9
штиль 0 16 км 2/0 2250 m
[Ac]
0.0 -3.3 78 -1 -1 1026.3 1011.6
штиль 0 16 км ясно -2.2 -4.4 85 -3 -3 1025.8 1010.9 -2.8 +5.6
С 2 16 км ясно -2.2 -4.4 85 -6 -6 1025.6 1010.9
штиль 0 16 км 2/0 2250 m
[Ac]
-2.2 -4.4 85 -3 -3 1025.7 1010.9
В 2 16 км ясно -1.1 -3.9 81 -5 -5 1025.1 1010.2
СВ 2 16 км ясно -1.1 -3.9 81 -5 -5 1024.9 1010.2
СВ 3 16 км ясно -1.1 -3.9 81 -6 -6 1024.5 1009.9
СВ 3 16 км ясно -1.7 -3.9 85 -7 -7 1024.3 1009.6 -2.8 -0.6
СВ 3 16 км ясно 0.0 -2.8 81 -5 -5 1024.1 1009.2
штиль 0 16 км 2/0 3600 m
[Ac]
+1.1 -1.7 82 0 +1 1024.5 1009.6
В 2 16 км 2/0 3300 m
[Ac]
+3.3 -1.1 73 +1 +2 1023.3 1008.6
штиль 0 16 км 10/0 3300 m
[Ac]
+4.4 -1.1 67 +4 +5 1022.5 1007.9
Ю 4 16 км 8/0 3000 m
[Ac]
+6.1 -0.6 62 +3 +4 1020.9 1006.2
СЗ 2 16 км 10/0 3300 m
[Ac]
+5.6 -0.6 64 +3 +5 1020.3 1005.5 -1.7 +6.7
СЗ 3 16 км 10/0 2700 m
[Ac]
+6.7 -0.6 60 +4 +5 1019.3 1004.5
СЗ 4 16 км 8/0 2250 m
[Ac]
+7.2 -1.1 56 +4 +5 1020.0 1005.2
штиль 0 16 км 10/0 2400 m
[Ac]
+7.2 0.0 60 +7 +8 1020.0 1005.2
ЮЗ 3 16 км 10/5 1440 m
[Ac]
+6.7 0.0 62 +4 +4 1019.9 1005.2
З 2 16 км 10/10 1140 м +6.1 0.0 65 +4 +4 1020.3 1005.5
СЗ 2 16 км 10/10 1230 м +6.7 0.0 62 +5 +5 1020.6 1005.9 +5.6 +7.8
З 2 16 км 10/10 1140 м +6.1 +0.6 68 +4 +4 1020.8 1005.9
Местоположение метеостанции Lehigh Valley International Airport: широта 40.6508 долгота -75.4492 высота над уровнем моря 119 м.
В архиве по умолчанию представлена погода в Аллентауне за последние 1-2 суток. Обновление информации о фактической погоде в базе происходит ежечасно! Архивные данные за месяц целиком и за предыдущие месяцы Вы можете получить, выбрав интересующий диапазон дат из раскрывающегося списка и нажав кнопку "Ввод!".
Внимание! Архив погоды МЕТАР в базе сайта по станциям, не включенным в климатический монитор, хранится не более 60 дней. Нет смысла пытаться выбрать более раннюю дату.
*Определитесь, кто Вы:
Внимание! Время в таблицах - местное (без учета летнего времени). Для получения всемирного времени необходимо вычесть поправку, которая равна -5 ч.
Смотрите также архив погоды в соседних городах и на ближайших метеорологических станциях:
Партнеры нашего сайта:      
Пояснения к столбцам:
  • Ветер - указаны скорость ветра в м/с - средняя за 10 мин, порывы в срок и между сроками (в фигурных скобках) и направление, откуда дует ветер: С - северный,
  • СВ - северо-восточный, В - восточный, ЮВ - юго-восточный, Ю - южный, ЮЗ - юго-западный, З - западный, СЗ - северо-западный.
  • Видимость - горизонтальная дальность видимости в метрах или километрах. При видимости от 1 до 10 км при отсутствии осадков обычно наблюдается дымка, при ухудшении видимости до 1 км и менее - туман. В сухую погоду видимость может ухудшаться дымом, пылью или мглою.
  • Явления - указаны атмосферные явления, наблюдавшиеся в срок или в последний час перед сроком; фигурными скобками обозначены явления, наблюдавшиеся между сроками (за 1-3 часа до срока); квадратными скобками обозначены град или гололедные отложения с указанием их диаметра в мм.
  • Облачность - указаны через наклонную черту общая и нижняя облачность в баллах и высота нижней границы облаков в метрах; квадратными скобками обозначены формы облаков: Ci - перистые, Cs - перисто-слоистые, Cc - перисто-кучевые, Ac - высококучевые, As - высокослоистые, Sc - слоисто-кучевые, Ns - слоисто-дождевые, Cu - кучевые, Cb - кучево-дождевые. Подробнее классификацию облаков см. в Атласе облаков (PDF).
  • T - Температура воздуха - температура, измеренная на высоте 2 м над землей.
  • Td - Температура точки росы - температура, при понижении до которой содержащийся в воздухе водяной пар достигнет насыщения.
  • f - Относительная влажность воздуха - влажноcть воздуха, измеренная на высоте 2 м над землей.
  • Te - Эффективная температура - температура, которую ощущает одетый по сезону человек в тени. Характеристика душности погоды. При расчете учитывается влияние влажности воздуха и скорости ветра на теплоощущения человека.
  • Tes - Эффективная температура на солнце - температура, которую ощущает человек, с поправкой на солнечный нагрев. Характеристика знойности погоды. Зависит от высоты солнца над горизонтом, облачности и скорости ветра. Ночью, в пасмурную погоду, а также при ветре 12 м/с и более поправка равна нулю.
  • P - Атмосферное давление - приведенное к уровню моря атмосферное давление.
  • Po - Атмосферное давление - измеренное на уровне метеостанции атмосферное давление.
  • Tmin - Минимальная температура - минимум температуры воздуха на высоте 2 м над землей.
  • Tmax - Максимальная температура - максимум температуры воздуха на высоте 2 м над землей.
  • R - Количество осадков - Количество выпавших осадков за период времени, мм. При наведении курсора мыши на число - период времени, за который выпало указанное количество осадков.
  • R24 - Количество осадков - Количество выпавших осадков за 24 часа, мм.
  • S - Снежный покров - Высота снежного покрова, см. При наведении курсора мыши на число - состояние снежного покрова и степень покрытия местности в баллах.